Regional Weather Roundup
Issued by NWS Upton, NY

Current Version | Previous Version | Graphics & Text | Print | Product List | Glossary Off
Versions: 1 2 3 4 5 6 7 8 9 10 11 12 13 14 15 16 17 18 19 20 21 22 23 24 25 26 27 28 29 30 31 32 33 34 35 36 37 38 39 40 41 42 43 44 45 46 47 48 49 50

000
ASUS41 KOKX 251905
RWROKX

REGIONAL WEATHER ROUNDUP
NATIONAL WEATHER SERVICE NEW YORK NY
300 PM EDT FRI JUL 25 2014

NOTE: "FAIR" INDICATES FEW OR NO CLOUDS BELOW 12,000 FEET WITH NO
SIGNIFICANT WEATHER AND/OR OBSTRUCTIONS TO VISIBILITY.

NYZ071-072-176-178-NJZ106-104-252000-
NEW YORK CITY METRO AREA


CITY           SKY/WX    TMP DP  RH WIND       PRES   REMARKS
CENTRAL PARK   NOT AVBL
LAGUARDIA APRT MOSUNNY   81  52  36 NW7       29.98S
KENNEDY INTL   MOSUNNY   82  53  36 SW12      30.00S
NEWARK/LIBERTY MOSUNNY   83  53  35 SW3       29.99S
BRNX BOT. GARD   N/A     81  50  34 E2        30.00F
TETERBORO      SUNNY     84  54  35 VRB7      29.98S
$$

NYZ177-179-078>081-252000-
LONG ISLAND NEW YORK

CITY           SKY/WX    TMP DP  RH WIND       PRES   REMARKS
FARMINGDALE    MOSUNNY   79  53  40 CALM      29.99S
ISLIP          MOSUNNY   82  52  35 N10G17    29.98S
SHIRLEY        SUNNY     81  50  33 N5        30.00R
WESTHAMPTON    SUNNY     80  52  37 NW6       30.00S
MONTAUK POINT    N/A     78  53  41 VRB5      29.99S
$$

NYZ052-065-067-252000-
HUDSON VALLEY

CITY           SKY/WX    TMP DP  RH WIND       PRES   REMARKS
WHITE PLAINS   SUNNY     78  51  38 NW8       30.00S
NEWBURGH       SUNNY     77  57  50 W5        30.02S
MONTGOMERY     SUNNY     79  55  43 W6        30.00F
POUGHKEEPSIE   SUNNY     78  53  41 CALM      29.98F
ALBANY         MOSUNNY   80  56  43 W12       29.98F
$$

NJZ001-105-106-008-010-013-015-019>022-104-252000-
NEW JERSEY

CITY           SKY/WX    TMP DP  RH WIND       PRES   REMARKS
NEWARK/LIBERTY MOSUNNY   83  53  35 SW3       29.99S
TETERBORO      SUNNY     84  54  35 VRB7      29.98S
CALDWELL       MOSUNNY   81  52  36 VRB6      30.00S
MORRISTOWN     MOSUNNY   81  55  41 CALM      30.00
SOMERVILLE     NOT AVBL
LINDEN         FAIR      82  52  34 SW5       30.00F
SUSSEX         SUNNY     80  50  34 VRB6      30.01F
ANDOVER          N/A     78  53  41 CALM      30.01F
TRENTON        MOSUNNY   81  53  37 NW7       29.99F
MILLVILLE      SUNNY     81  59  47 MISG      30.00F
ATLANTIC CITY  SUNNY     78  63  59 E9        30.00F
WRIGHTSTOWN    MOSUNNY   82  56  39 VRB6      29.97F
TOMS RIVER     PTSUNNY   81  55  41 S7        30.01S
BELMAR         MOSUNNY   79  57  47 SE9       30.00S
$$

PAZ047>061-062-071-252000-
EASTERN PENNSYLVANIA

CITY           SKY/WX    TMP DP  RH WIND       PRES   REMARKS
PHILADELPHIA   MOSUNNY   81  54  39 S6        29.99F
ALLENTOWN      SUNNY     80  52  37 CALM      30.01F
SCRANTON       SUNNY     80  47  31 W9        30.02F
$$

CTZ002-004>006-009-010-012-RIZ004-006-007-MAZ004-011-015-252000-
SOUTHERN NEW ENGLAND
 IN CT

CITY           SKY/WX    TMP DP  RH WIND       PRES   REMARKS
BRADLEY INTL   PTSUNNY   81  54  39 W8        29.96F
HARTFORD       MOSUNNY   80  56  43 NW6       29.96F
DANBURY        SUNNY     77  54  44 VRB7      30.01F
WTRBRY/OXFORD  MOSUNNY   75  55  50 N3        30.03
BRIDGEPORT     SUNNY     79  58  48 S13       29.98S
MERIDEN        SUNNY     81  55  40 VRB6      29.97F
NEW HAVEN      MOSUNNY   79  60  52 SW8       29.98S
CHESTER        FAIR      79  54  41 W3        29.99S
GROTON         SUNNY     78  56  46 VRB6      29.96S
WILLIMANTIC    SUNNY     80  54  40 N12       29.97S

 IN RI

CITY           SKY/WX    TMP DP  RH WIND       PRES   REMARKS
PROVIDENCE     MOSUNNY   81  53  37 W10       29.96S
BLOCK ISLAND   SUNNY     77  55  47 W8        29.98S
WESTERLY       MOSUNNY   78  58  49 S6        29.97S

 IN MA

CITY           SKY/WX    TMP DP  RH WIND       PRES   REMARKS
BOSTON         MOSUNNY   80  52  37 VRB5G18   29.93F
WORCESTER      MOSUNNY   76  53  44 W9        29.99S
WESTFIELD      MOSUNNY   81  53  37 VRB6      29.96F
PROVINCETOWN   SUNNY     75  52  43 CALM      29.95F
NANTUCKET      SUNNY     74  59  59 VRB5      29.95S
$$

ANZ330-335-338-340-345-350-353-355-252000-
COASTAL MARINE OBSERVATIONS


STATION/POSITION TIME  SKY/WX   TEMP    WIND        PRES    VSBY  WAVE
                                AIR SEA DIR/SP/G                  HT/PER
                 (UTC)          (F)     (DEG/KT/KT) (MB)    (MI)  (FT/S)
NY HARB ENTRANCE NOT AVBL
4S FIRE IS       NOT AVBL
23SW MTP         1900            71 73              1015.0          2/ 8
HUDSON CANYON    1900            72 75   40/  4/  8 1016.0          3/ 4
EXECUTION ROCKS  1900            76 75  110/  4/  6   N/A
WESTERN LI SOUND 1900            75     210/  4/  6   N/A           1
CENTRAL LI SOUND 1900            72 72  240/ 10/ 12   N/A           1
EASTERN LI SOUND 1800            71 68  230/  8/ 10   N/A
ROBBINS REEF     1900            78     170/  4/  5   N/A
$$


>>>>>>>>>>>>>>>>>>>>>>>>>>>> KEY <<<<<<<<<<<<<<<<<<<<<<<<<<<
>                                                          <
>     SKY/WX - SKY CONDITION/PRESENT WEATHER               <
>     TMP    - TEMPERATURE IN FAHRENHEIT                   <
>     DP     - DEWPOINT IN FAHRENHEIT                      <
>     RH     - RELATIVE HUMIDITY IN PERCENT                <
>     WIND   - DIRECTION AND SPEED IN MPH                  <
>     PRES   - MEAN SEA LEVEL PRESSURE IN INCHES OF HG     <
>     WCI    - WIND CHILL INDEX                            <
>     VSB    - VISIBILITY IN MILES                         <
>     HX     - HEAT INDEX                                  <
>     TC     - TEMPERATURE IN CELSIUS                      <
>     VRB    - VARIABLE WIND DIRECTION                     <
>                                                          <
>>>>>>>>>>>>>>>>>>>>>>>>>>>> KEY <<<<<<<<<<<<<<<<<<<<<<<<<<<





USA.gov is the U.S. government's official web portal to all federal, state and local government web resources and services.